This is the latest recevied weather packets stored in our database for station/object KB1FFS. If no packets are shown the sender has not sent any weather packets the latest 10 day(s).
| Time | Temp. | Humidity | Pressure | Rain* | Wind** | Luminosity | Snow |
|---|---|---|---|---|---|---|---|
| 1787688697 | 39.44° C | 31% | 1014.6 hPa | 0 mm | - | 655 W/m² | - |
| 1787688397 | 38.89° C | 33% | 1014.8 hPa | 0 mm | - | 641 W/m² | - |
| 1787688092 | 39.44° C | 32% | 1014.7 hPa | 0 mm | - | 299 W/m² | - |
| 1787687787 | 40° C | 31% | 1014.8 hPa | 0 mm | - | 251 W/m² | - |
| 1787687487 | 40° C | 32% | 1014.9 hPa | 0 mm | - | 699 W/m² | - |
| 1787687184 | 39.44° C | 32% | 1015 hPa | 0 mm | - | 726 W/m² | - |
| 1787686878 | 39.44° C | 32% | 1014.9 hPa | 0 mm | - | 638 W/m² | - |
| 1787686575 | 40° C | 32% | 1015 hPa | 0 mm | - | 464 W/m² | - |
| 1787686269 | 39.44° C | 32% | 1014.9 hPa | 0 mm | - | 663 W/m² | - |
| 1787685965 | 39.44° C | 32% | 1015 hPa | 0 mm | - | 634 W/m² | - |
| 1787685661 | 38.89° C | 32% | 1014.8 hPa | 0 mm | - | 640 W/m² | - |
| 1787685360 | 38.89° C | 33% | 1015.2 hPa | 0 mm | - | 633 W/m² | - |
| 1787685055 | 38.89° C | 35% | 1015.3 hPa | 0 mm | - | 619 W/m² | - |
| 1787684751 | 38.33° C | 35% | 1015.1 hPa | 0 mm | - | 537 W/m² | - |
| 1787684450 | 38.33° C | 35% | 1015.4 hPa | 0 mm | - | 478 W/m² | - |
| 1787684145 | 37.78° C | 36% | 1015.3 hPa | 0 mm | - | 504 W/m² | - |
| 1787683843 | 37.78° C | 35% | 1015.3 hPa | 0 mm | - | 496 W/m² | - |
| 1787683540 | 37.78° C | 36% | 1015.5 hPa | 0 mm | - | 518 W/m² | - |
| 1787683235 | 37.22° C | 37% | 1015.4 hPa | 0 mm | - | 522 W/m² | - |
| 1787682932 | 36.67° C | 37% | 1015.6 hPa | 0 mm | - | 507 W/m² | - |
| 1787682628 | 36.67° C | 38% | 1015.6 hPa | 0 mm | - | 303 W/m² | - |
| 1787682324 | 36.67° C | 38% | 1015.7 hPa | 0 mm | - | 269 W/m² | - |
| 1787682019 | 36.67° C | 37% | 1015.9 hPa | 0 mm | - | 523 W/m² | - |
| 1787681714 | 36.11° C | 41% | 1016.2 hPa | 0 mm | - | 549 W/m² | - |
| 1787681409 | 35.56° C | 41% | 1016.2 hPa | 0 mm | - | 343 W/m² | - |
* Rain latest hour (hover to see other rain measurements)
** Current wind speed in m/s (hover to see current wind gust speed)